logo
App data

Yon Paradox

Yon Paradox ​is a survival puzzle game where the hardest puzzle is yourself. Set in a cyber dimension, an antimatter-powered time machine broke, causing periodical time rewinds. You will have to solve riddles to repair the time machine, while avoiding your past alter-egos to not create paradoxes.
Store | Hub | SteamDB | Site
Developer: Digital Mantis Publisher: IV Productions
Genre: Casual, Indie
Languages: English
Tags: Indie (33), Casual (22), VR (16), Survival (14), Puzzle (14), Action (13), First-Person (13), Singleplayer (13), Surreal (12), Exploration (12), Atmospheric (12), Stylized (12), 1980s (11), Difficult (10)
Category: Single-player, Steam Trading Cards, Partial Controller Support
Release date: May 6, 2016
Price: $2.99
Old userscore: 57% Owners: 0 .. 20,000
Followers: 904
Peak concurrent players yesterday: 1

Steam Spy is still in beta, so expect major bugs.

Owners data:

Access restricted.

This feature is only available to users with special access rights. Sorry.

If you want to proceed, you need to register or log in first and then back Steam Spy on Patreon. Look for Indie or Pro pledge.

Don't forget to use the same email as on Steam Spy!

If you've recently backed Steam Spy on Patreon, please note, that it might take around 15 minutes for your access rights to sync. In most cases you'll need to re-login on Steam Spy too.

Audience in 2 weeks:

Access restricted.

This feature is only available to users with special access rights. Sorry.

If you want to proceed, you need to register or log in first and then back Steam Spy on Patreon. Look for Indie or Pro pledge.

Don't forget to use the same email as on Steam Spy!

If you've recently backed Steam Spy on Patreon, please note, that it might take around 15 minutes for your access rights to sync. In most cases you'll need to re-login on Steam Spy too.

Peak daily concurrent players:

CCU data courtesy of SteamDB. Used with permission.

Hourly concurrent players:

Daily Twitch stats:

Hourly Twitch stats:

Followers over time

Access restricted.

This feature is only available to users with special access rights. Sorry.

If you want to proceed, you need to register or log in first and then back Steam Spy on Patreon. Look for Indie or Pro pledge.

Don't forget to use the same email as on Steam Spy!

If you've recently backed Steam Spy on Patreon, please note, that it might take around 15 minutes for your access rights to sync. In most cases you'll need to re-login on Steam Spy too.

Views for top 50 videos on YouTube for this game:

Games similar to this one:

# Game Release date
Price
Score rank
(Userscore / Metascore)
Owners
Players
Playtime (Median)
1 Critter Crunch Sep 11, 2012 $6.99N/A (N/A)20,000 .. 50,0000%00:00 (00:00)
2 BIT.TRIP BEAT Nov 2, 2010 $5.99N/A (N/A)200,000 .. 500,0000%00:00 (00:00)
3 Super Splatters Jun 26, 2013 N/AN/A (N/A/73%)50,000 .. 100,0000%00:00 (00:00)
4 Ms. Splosion Man Apr 3, 2013 $9.99N/A (N/A)50,000 .. 100,0000%00:00 (00:00)
5 SOL: Exodus Jan 25, 2012 $7.99N/A (N/A/57%)50,000 .. 100,0000%00:00 (00:00)
6 Titan Attacks! Feb 3, 2012 $6.49N/A (N/A)50,000 .. 100,0000%00:00 (00:00)
7 BIT.TRIP CORE Oct 2, 2012 $9.99N/A (N/A)50,000 .. 100,0000%00:00 (00:00)
8 BIT.TRIP VOID Dec 19, 2012 $9.99N/A (N/A)20,000 .. 50,0000%00:00 (00:00)
9 Tales From Space: Mutant Blobs Attack Aug 15, 2012 $9.99N/A (N/A/83%)100,000 .. 200,0000%00:00 (00:00)
10 All Zombies Must Die!: Scorepocalypse Apr 19, 2012 $4.99N/A (N/A)20,000 .. 50,0000%00:00 (00:00)
11 Unmechanical Aug 8, 2012 $9.99N/A (N/A/74%)100,000 .. 200,0000%00:00 (00:00)
12 Sugar Cube: Bittersweet Factory Nov 7, 2012 $6.99N/A (N/A)20,000 .. 50,0000%00:00 (00:00)
13 Party of Sin Dec 13, 2012 $5.99N/A (N/A)50,000 .. 100,0000%00:00 (00:00)
14 Home Aug 31, 2012 $4.99N/A (N/A/69%)200,000 .. 500,0000%00:00 (00:00)
15 Ultratron Mar 18, 2013 $12.99N/A (N/A)100,000 .. 200,0000%00:00 (00:00)
16 Cargo Commander Nov 1, 2012 $2.99N/A (N/A)100,000 .. 200,0000%00:00 (00:00)
17 Puddle Nov 9, 2012 $7.99N/A (N/A)100,000 .. 200,0000%00:00 (00:00)
18 Retro/Grade Mar 20, 2013 $9.99N/A (N/A)50,000 .. 100,0000%00:00 (00:00)
19 Papo & Yo Apr 18, 2013 $14.99N/A (N/A/70%)200,000 .. 500,0003.13%01:16 (00:25)
20 Dream Jul 31, 2015 $8.99N/A (N/A/59%)50,000 .. 100,0000%00:00 (00:00)
21 Bad Hotel Oct 16, 2013 $4.99N/A (N/A)50,000 .. 100,0000%00:00 (00:00)
22 Godus Jul 1, 1989 $14.99N/A (N/A)200,000 .. 500,0000%00:00 (00:00)
23 Wake $4.99N/A (N/A)0 .. 20,0000%00:00 (00:00)
24 Zack Zero Apr 29, 2013 $2.99N/A (N/A)50,000 .. 100,0000%00:00 (00:00)
25 Element4l May 24, 2013 $8.99N/A (N/A/77%)50,000 .. 100,0000%00:00 (00:00)
26 Intake Nov 6, 2013 $9.99N/A (N/A)20,000 .. 50,0000%00:00 (00:00)
27 Super Puzzle Platformer Deluxe May 24, 2013 $7.99N/A (N/A)20,000 .. 50,0000%00:00 (00:00)
28 Poöf Nov 8, 2013 $6.99N/A (N/A)20,000 .. 50,0000%00:00 (00:00)
29 The Novelist Dec 10, 2013 $4.99N/A (N/A/66%)100,000 .. 200,0000%00:00 (00:00)
30 Knytt Underground Oct 25, 2013 $6.99N/A (N/A)50,000 .. 100,0000%00:00 (00:00)
31 Omegalodon Sep 20, 2013 $9.99N/A (N/A)20,000 .. 50,0000%00:00 (00:00)
32 Escape Goat Oct 9, 2013 $4.99N/A (N/A)20,000 .. 50,0000%00:00 (00:00)
33 Solar Flux Oct 24, 2013 $9.99N/A (N/A)100,000 .. 200,0000%00:00 (00:00)
34 Maia Nov 23, 2018 $24.99N/A (N/A)20,000 .. 50,0000%00:00 (00:00)
35 FOTONICA Nov 6, 2014 $14.99N/A (N/A/71%)50,000 .. 100,0000%00:00 (00:00)
36 Gentlemen! Nov 5, 2013 $4.99N/A (N/A)20,000 .. 50,0000%00:00 (00:00)
37 Escape Goat 2 Mar 24, 2014 $4.99N/A (N/A/76%)50,000 .. 100,0000%00:00 (00:00)
38 Survivor Squad Nov 8, 2013 $0.53N/A (N/A)100,000 .. 200,0000%00:00 (00:00)
39 Montague's Mount Nov 19, 2013 $4.99N/A (N/A/39%)20,000 .. 50,0000%00:00 (00:00)
40 Ballpoint Universe - Infinite Dec 17, 2013 $3.99N/A (N/A)50,000 .. 100,0000%00:00 (00:00)
41 STARWHAL Sep 29, 2014 $11.99N/A (N/A)50,000 .. 100,0000%00:00 (00:00)
42 Imagine Me Dec 9, 2014 $2.99N/A (N/A)20,000 .. 50,0000%00:00 (00:00)
43 Jones On Fire Mar 27, 2015 $2.99N/A (N/A)50,000 .. 100,0000%00:00 (00:00)
44 10 Second Ninja Mar 5, 2014 $1.99N/A (N/A/72%)50,000 .. 100,0000%00:00 (00:00)
45 Labyrinthine Dreams May 26, 2015 $1.99N/A (N/A)50,000 .. 100,0000%00:00 (00:00)
46 Imagine Earth May 25, 2021 $24.99N/A (N/A/78%)50,000 .. 100,0000%00:00 (00:00)
47 Munin Jun 10, 2014 $4.99N/A (N/A/68%)200,000 .. 500,0000%00:00 (00:00)
48 Rabbit Hole 3D: Steam Edition Apr 25, 2014 $2.99N/A (N/A)50,000 .. 100,0000%00:00 (00:00)
49 ReignMaker Apr 16, 2014 $14.99N/A (N/A)50,000 .. 100,0000%00:00 (00:00)
50 Volt Apr 14, 2014 $0.99N/A (N/A)100,000 .. 200,0000%00:00 (00:00)
51 Three Dead Zed Jul 7, 2014 $5.99N/A (N/A)100,000 .. 200,0000%00:00 (00:00)
52 Starship Corporation May 3, 2018 $19.99N/A (N/A)100,000 .. 200,0000%00:00 (00:00)
53 Uriel's Chasm Sep 12, 2014 $4.99N/A (N/A)200,000 .. 500,0002.56%02:18 (00:46)
54 Stranded May 20, 2014 $0.49N/A (N/A)50,000 .. 100,0000%00:00 (00:00)
55 The Promised Land Jul 11, 2012 $6.99N/A (N/A)20,000 .. 50,0000%00:00 (00:00)
56 Dreaming Sarah Mar 12, 2015 $5.99N/A (N/A)200,000 .. 500,0000%00:00 (00:00)
57 Captain Forever Remix Jun 3, 2016 $9.99N/A (N/A)20,000 .. 50,0000%00:00 (00:00)
58 Frederic: Resurrection of Music May 16, 2014 $2.99N/A (N/A)100,000 .. 200,0000%00:00 (00:00)
59 Frederic: Evil Strikes Back May 23, 2014 $7.99N/A (N/A)100,000 .. 200,0000%00:00 (00:00)
60 Rhythm Destruction Jun 16, 2014 $4.99N/A (N/A)50,000 .. 100,0000%00:00 (00:00)
61 Boson X Sep 15, 2014 $2.99N/A (N/A)200,000 .. 500,0000%00:00 (00:00)
62 Concursion Jun 6, 2014 $4.99N/A (N/A/66%)20,000 .. 50,0000%00:00 (00:00)
63 Iron Fisticle Sep 16, 2014 $0.89N/A (N/A)50,000 .. 100,0000%00:00 (00:00)
64 Curses 'N Chaos Aug 18, 2015 $9.99N/A (N/A)20,000 .. 50,0000%00:00 (00:00)
65 Back to Bed Aug 6, 2014 $5.99N/A (N/A)1,000,000 .. 2,000,0000%00:00 (00:00)
66 NEON STRUCT May 20, 2015 $17.99N/A (N/A/62%)20,000 .. 50,0000%00:00 (00:00)
67 Mega Coin Squad Aug 15, 2014 $14.99N/A (N/A/56%)0 .. 20,0000%00:00 (00:00)
68 OTTTD Aug 6, 2014 $7.99N/A (N/A)20,000 .. 50,0000%00:00 (00:00)
69 The Masterplan Jun 4, 2015 $19.99N/A (N/A/68%)50,000 .. 100,0000%00:00 (00:00)
70 Amazing Princess Sarah Aug 18, 2014 $4.99N/A (N/A)20,000 .. 50,0000%00:00 (00:00)
71 Velocibox Sep 8, 2014 $4.99N/A (N/A)50,000 .. 100,0000%00:00 (00:00)
72 Supreme: Pizza Empire Jan 9, 2015 $9.99N/A (N/A)0 .. 20,0000%00:00 (00:00)
73 Squishy the Suicidal Pig Oct 23, 2014 $1.49N/A (N/A)200,000 .. 500,0000%00:00 (00:00)
74 Ninja Pizza Girl Sep 30, 2015 $6.99N/A (N/A/82%)50,000 .. 100,0000%00:00 (00:00)
75 iO Dec 5, 2014 $4.99N/A (N/A)20,000 .. 50,0000%00:00 (00:00)
76 Horizon Shift May 29, 2015 $4.99N/A (N/A)100,000 .. 200,0000%00:00 (00:00)
77 The Deer God Feb 27, 2015 $14.99N/A (N/A/59%)20,000 .. 50,0000%00:00 (00:00)
78 Pix the Cat Jan 29, 2015 $4.99N/A (N/A/77%)50,000 .. 100,0000%00:00 (00:00)
79 Phoenix Force Nov 13, 2014 $0.99N/A (N/A)50,000 .. 100,0000%00:00 (00:00)
80 Marvin's Mittens Dec 17, 2014 $5.99N/A (N/A)20,000 .. 50,0000%00:00 (00:00)
81 A Druid's Duel Feb 25, 2015 $7.99N/A (N/A/70%)0 .. 20,0000%00:00 (00:00)
82 Dwarf Tower Dec 23, 2014 $0.99N/A (N/A)20,000 .. 50,0000%00:00 (00:00)
83 Chronicles of a Dark Lord: Episode 1 Tides of Fate Complete Dec 19, 2014 N/AN/A (N/A)50,000 .. 100,0000%00:00 (00:00)
84 Four Sided Fantasy Aug 30, 2016 $9.99N/A (N/A)50,000 .. 100,0000%00:00 (00:00)
85 Bermuda Mar 17, 2015 $2.99N/A (N/A)20,000 .. 50,0000%00:00 (00:00)
86 Ukrainian Ninja Dec 23, 2014 FreeN/A (N/A)100,000 .. 200,0000%00:00 (00:00)
87 TIMEframe Jul 7, 2015 $5.99N/A (N/A)50,000 .. 100,0000%00:00 (00:00)
88 On A Roll 3D Feb 12, 2015 $3.99N/A (N/A)50,000 .. 100,0000%00:00 (00:00)
89 Glorkian Warrior: The Trials Of Glork Mar 24, 2015 $3.99N/A (N/A)20,000 .. 50,0000%00:00 (00:00)
90 Shipwreck Feb 13, 2015 $2.99N/A (N/A)0 .. 20,0000%00:00 (00:00)
91 It came from space and ate our brains Mar 19, 2015 $14.99N/A (N/A)200,000 .. 500,0000%00:00 (00:00)
92 Three Fourths Home: Extended Edition Mar 20, 2015 $4.99N/A (N/A/77%)20,000 .. 50,0000%00:00 (00:00)
93 The Cursed Forest Feb 26, 2019 $13.99N/A (N/A)20,000 .. 50,0000%00:00 (00:00)
94 Reflections Jun 26, 2015 $9.99N/A (N/A)0 .. 20,0000%00:00 (00:00)
95 Farlight Explorers Feb 1, 2019 $9.99N/A (N/A)0 .. 20,0000%00:00 (00:00)
96 Porcunipine May 21, 2015 $0.99N/A (N/A)20,000 .. 50,0000%00:00 (00:00)
97 An Octave Higher Mar 27, 2015 $11.99N/A (N/A)20,000 .. 50,0000%00:00 (00:00)
98 Miner Warfare Jun 11, 2015 $2.99N/A (N/A)0 .. 20,0000%00:00 (00:00)
99 Beyond Eyes Aug 11, 2015 N/AN/A (N/A/60%)100,000 .. 200,0000%00:00 (00:00)
100 Orbit HD Mar 18, 2015 $0.99N/A (N/A)50,000 .. 100,0000%00:00 (00:00)
101 Big Action Mega Fight! Jan 12, 2016 $1.99N/A (N/A)20,000 .. 50,0000%00:00 (00:00)
102 Gryphon Knight Epic Aug 20, 2015 $12.99N/A (N/A/55%)20,000 .. 50,0000%00:00 (00:00)
103 Canabalt Apr 30, 2015 $2.99N/A (N/A)20,000 .. 50,0000%00:00 (00:00)
104 Hare In The Hat Apr 1, 2015 $1.99N/A (N/A)50,000 .. 100,0000%00:00 (00:00)
105 Spellsworn Mar 13, 2018 FreeN/A (N/A)100,000 .. 200,0000%00:00 (00:00)
106 Luna Sky Oct 2, 2015 $12.99N/A (N/A)50,000 .. 100,0000%00:00 (00:00)
107 Interstellar Rift Sep 24, 2020 $7.99N/A (N/A)50,000 .. 100,0000%00:00 (00:00)
108 Polyball Dec 1, 2017 $14.99N/A (N/A)200,000 .. 500,0000%00:00 (00:00)
109 Season of 12 Colors Mar 14, 2016 $2.99N/A (N/A)50,000 .. 100,0000%00:00 (00:00)
110 Impossiball Aug 8, 2017 $0.99N/A (N/A)0 .. 20,0000%00:00 (00:00)
111 Pizza Express Jun 25, 2015 $6.99N/A (N/A)20,000 .. 50,0000%00:00 (00:00)
112 Football, Tactics & Glory Jun 1, 2018 $24.99N/A (N/A)200,000 .. 500,00020%04:16 (02:08)
113 The Adventures of Mr. Bobley Jun 30, 2015 $0.99N/A (N/A)50,000 .. 100,0000%00:00 (00:00)
114 Monument Jun 5, 2015 $1.99N/A (N/A)200,000 .. 500,0000%00:00 (00:00)
115 Western Press Apr 21, 2016 $4.99N/A (N/A)20,000 .. 50,0000%00:00 (00:00)
116 Sky Rogue Aug 24, 2017 $19.99N/A (N/A)50,000 .. 100,0000%00:00 (00:00)
117 Action Alien Jun 26, 2015 $1.19N/A (N/A)100,000 .. 200,0000%00:00 (00:00)
118 8Bit Fiesta - Party Game Sep 30, 2016 FreeN/A (N/A)0 .. 20,0000%00:00 (00:00)
119 Dead In Bermuda Aug 27, 2015 $14.99N/A (N/A)20,000 .. 50,0000%00:00 (00:00)
120 Aviary Attorney Dec 21, 2015 $14.99N/A (N/A/77%)20,000 .. 50,0000%00:00 (00:00)
121 none Nov 4, 2015 N/AN/A (N/A)20,000 .. 50,0000%00:00 (00:00)
122 Super Trench Attack 2 Nov 6, 2015 $2.99N/A (N/A)20,000 .. 50,0000%00:00 (00:00)
123 A.I. Invasion Sep 30, 2015 $2.99N/A (N/A)0 .. 20,0000%00:00 (00:00)
124 Earth Overclocked Dec 4, 2015 $4.99N/A (N/A)20,000 .. 50,0000%00:00 (00:00)
125 Redemption: Eternal Quest Aug 28, 2015 $0.99N/A (N/A)100,000 .. 200,0000%00:00 (00:00)
126 Void Invaders Aug 14, 2015 $2.99N/A (N/A)20,000 .. 50,0000%00:00 (00:00)
127 Blaster Shooter GunGuy! Aug 10, 2015 $1.99N/A (N/A)100,000 .. 200,0000%00:00 (00:00)
128 Wild Island Quest Sep 4, 2015 $1.99N/A (N/A)50,000 .. 100,0000%00:00 (00:00)
129 Shmadow Nov 3, 2015 $1.99N/A (N/A)20,000 .. 50,0000%00:00 (00:00)
130 Moonbase 332 May 20, 2015 $4.99N/A (N/A)20,000 .. 50,0000%00:00 (00:00)
131 Kitchen Simulator 2015 Sep 2, 2015 $0.99N/A (N/A)20,000 .. 50,0000%00:00 (00:00)
132 ChargeShot Sep 18, 2015 $9.99N/A (N/A)20,000 .. 50,0000%00:00 (00:00)
133 Press X to Not Die Oct 6, 2017 $2.99N/A (N/A)100,000 .. 200,0000%00:00 (00:00)
134 1,000 Heads Among the Trees Dec 11, 2015 $4.99N/A (N/A)50,000 .. 100,0000%00:00 (00:00)
135 Dream Factory Nov 2, 2015 $9.99N/A (N/A)20,000 .. 50,0000%00:00 (00:00)
136 The Purring Quest Nov 12, 2015 $9.99N/A (N/A)100,000 .. 200,0000%00:00 (00:00)
137 Perraw - FPS Clone War Alpha Jan 29, 2016 $0.99N/A (N/A)20,000 .. 50,0000%00:00 (00:00)
138 Morphine Oct 28, 2015 $2.99N/A (N/A)50,000 .. 100,0000%00:00 (00:00)
139 Heavy Gear Assault Feb 10, 2017 $39.99N/A (N/A)20,000 .. 50,0000%00:00 (00:00)
140 Godus Wars Feb 3, 2016 $14.99N/A (N/A)50,000 .. 100,0000%00:00 (00:00)
141 Bell Ringer Mar 18, 2016 $6.99N/A (N/A)200,000 .. 500,0000%00:00 (00:00)
142 PERFECT ANGLE: The puzzle game based on optical illusions Dec 22, 2015 $9.99N/A (N/A)100,000 .. 200,0000%00:00 (00:00)
143 Tiny Guardians Mar 23, 2016 $9.99N/A (N/A)0 .. 20,0000%00:00 (00:00)
144 Doodle Kingdom Jun 9, 2016 $8.99N/A (N/A)20,000 .. 50,0000%00:00 (00:00)
145 Rencounter Nov 4, 2016 $5.99N/A (N/A)50,000 .. 100,0000%00:00 (00:00)
146 10 Second Ninja X Jul 19, 2016 $0.99N/A (N/A)200,000 .. 500,0000%00:00 (00:00)
147 Empire of the Gods Jan 27, 2016 $1.99N/A (N/A)50,000 .. 100,0000%00:00 (00:00)
148 Mindless Running Feb 18, 2016 $0.99N/A (N/A)20,000 .. 50,0000%00:00 (00:00)
149 Mimpi Dreams Mar 22, 2016 FreeN/A (N/A)20,000 .. 50,0000%00:00 (00:00)
150 Bunker Punks May 28, 2018 $14.99N/A (N/A)20,000 .. 50,0000%00:00 (00:00)
151 Cube Land Arena Mar 29, 2016 $0.49N/A (N/A)50,000 .. 100,0000%00:00 (00:00)
152 Hero Quest: Tower Conflict Apr 13, 2016 $1.99N/A (N/A)200,000 .. 500,0000%00:00 (00:00)
153 CrazyCars3D Jun 14, 2016 $2.99N/A (N/A)50,000 .. 100,0000%00:00 (00:00)
154 Mainlining Jan 26, 2017 $12.99N/A (N/A/73%)50,000 .. 100,0000%00:00 (00:00)
155 Domino Sky Apr 5, 2016 $2.19N/A (N/A)50,000 .. 100,0000%00:00 (00:00)
156 OPUS: The Day We Found Earth Apr 21, 2016 $8.99N/A (N/A)100,000 .. 200,0000%00:00 (00:00)
157 Wrath of Anna Apr 2, 2018 $19.99N/A (N/A)20,000 .. 50,0000%00:00 (00:00)
158 Snooker Nation Championship Apr 27, 2016 $1.19N/A (N/A)20,000 .. 50,0000%00:00 (00:00)
159 Blade Ballet Aug 9, 2016 $14.99N/A (N/A)0 .. 20,0000%00:00 (00:00)
160 Dashy Square Apr 25, 2016 $2.99N/A (N/A)0 .. 20,0000%00:00 (00:00)
161 Moonstone Tavern - A Fantasy Tavern Sim! May 13, 2016 $7.99N/A (N/A)20,000 .. 50,0000%00:00 (00:00)
162 NORTH Apr 27, 2016 $1.99N/A (N/A)200,000 .. 500,0000%00:00 (00:00)
163 New Retro Arcade: Neon Aug 1, 2016 $19.99N/A (N/A)20,000 .. 50,0000%00:00 (00:00)
164 上帝之城 I:监狱帝国 [City of God I - Prison Empire] Jul 9, 2018 $18.99N/A (N/A)100,000 .. 200,0000%00:00 (00:00)
165 Can't Drive This Mar 19, 2021 $12.99N/A (N/A)20,000 .. 50,0000%00:00 (00:00)
166 Angel Express [Tokkyu Tenshi] Jul 15, 2016 $9.99N/A (N/A)0 .. 20,0000%00:00 (00:00)
167 Scanner Sombre Apr 26, 2017 $5.99N/A (N/A/67%)100,000 .. 200,0000%00:00 (00:00)
168 ORCS May 20, 2016 $0.55N/A (N/A)20,000 .. 50,0000%00:00 (00:00)
169 Reflection of Mine Feb 24, 2017 $7.99N/A (N/A)20,000 .. 50,0000%00:00 (00:00)
170 Amulet of Dreams Jun 3, 2016 $6.99N/A (N/A)0 .. 20,0000%00:00 (00:00)
171 Star Drifter Jun 1, 2016 $1.99N/A (N/A)200,000 .. 500,0000%00:00 (00:00)
172 Call Of The Mighty Warriors Mar 1, 2019 $4.99N/A (N/A)20,000 .. 50,0000%00:00 (00:00)
173 Karma Miwa Aug 12, 2016 FreeN/A (N/A)20,000 .. 50,0000%00:00 (00:00)
174 Super Duper Party Pooper Jun 6, 2016 $0.99N/A (N/A/40%)100,000 .. 200,0000%00:00 (00:00)
175 DashBored Jun 13, 2016 $4.99N/A (N/A)50,000 .. 100,0000%00:00 (00:00)
176 Bohemian Killing Jul 21, 2016 $12.99N/A (N/A/55%)20,000 .. 50,0000%00:00 (00:00)
177 Pixel Cup Soccer 17 Nov 1, 2021 $9.99N/A (N/A)0 .. 20,0000%00:00 (00:00)
178 Alteric Jul 13, 2016 $3.99N/A (N/A)20,000 .. 50,0000%00:00 (00:00)
179 You Deserve Aug 19, 2016 $0.99N/A (N/A)20,000 .. 50,0000%00:00 (00:00)
180 Dinosaur Forest May 17, 2017 $1.99N/A (N/A)100,000 .. 200,0000%00:00 (00:00)
181 Wheels of Aurelia Sep 20, 2016 $14.99N/A (N/A/63%)20,000 .. 50,0000%00:00 (00:00)
182 Joana's Life Sep 1, 2016 $1.99N/A (N/A)50,000 .. 100,0000%00:00 (00:00)
183 It Comes Around - A Kinetic Novel Sep 29, 2016 $2.99N/A (N/A)0 .. 20,0000%00:00 (00:00)
184 Starship Annihilator Sep 2, 2016 $0.99N/A (N/A)200,000 .. 500,0000%00:00 (00:00)
185 Please, Don't Touch Anything 3D Dec 7, 2016 $9.99N/A (N/A)100,000 .. 200,0000%00:00 (00:00)
186 mr.President Prologue Episode Sep 20, 2016 $0.99N/A (N/A)50,000 .. 100,0000%00:00 (00:00)
187 Pixel Gladiator Sep 8, 2017 $4.99N/A (N/A)20,000 .. 50,0000%00:00 (00:00)
188 Snake Pass Mar 28, 2017 $19.99N/A (N/A/71%)200,000 .. 500,0000%00:00 (00:00)
189 Wayout Nov 4, 2016 $0.99N/A (N/A)50,000 .. 100,0004.76%01:16 (00:25)
190 Artillerists Jan 2, 2017 $3.99N/A (N/A)20,000 .. 50,0000%00:00 (00:00)
191 Zolg Dec 2, 2016 $0.99N/A (N/A)50,000 .. 100,0000%00:00 (00:00)
192 99Vidas Dec 22, 2016 $12.99N/A (N/A/69%)50,000 .. 100,0000%00:00 (00:00)
193 Witch It Oct 22, 2020 $19.99N/A (N/A)200,000 .. 500,0002.65%00:47 (00:37)
194 Introvert Quest Mar 15, 2017 $2.99N/A (N/A)100,000 .. 200,0000%00:00 (00:00)
195 Distant Space Dec 20, 2016 $0.49N/A (N/A)100,000 .. 200,0000%00:00 (00:00)
196 Child Phobia: Nightcoming Fears Dec 20, 2016 $1.99N/A (N/A)20,000 .. 50,0000%00:00 (00:00)
197 Mistwood Heroes Dec 30, 2016 $0.51N/A (N/A)50,000 .. 100,0000%00:00 (00:00)
198 Three Kingdoms The Last Warlord Feb 4, 2021 $19.99N/A (N/A)50,000 .. 100,00011.11%08:54 (02:58)
199 GORN Jul 18, 2019 $19.99N/A (N/A/85%)200,000 .. 500,0002.86%00:05 (00:01)
200 Guns of Icarus Alliance Mar 31, 2017 $4.99N/A (N/A)100,000 .. 200,0000%00:00 (00:00)
201 The Archotek Project Apr 28, 2017 $0.99N/A (N/A)200,000 .. 500,0000%00:00 (00:00)

Tags over time:

Access restricted.

This feature is only available to users with special access rights. Sorry.

If you want to proceed, you need to register or log in first and then back Steam Spy on Patreon. Look for Indie or Pro pledge.

Don't forget to use the same email as on Steam Spy!

If you've recently backed Steam Spy on Patreon, please note, that it might take around 15 minutes for your access rights to sync. In most cases you'll need to re-login on Steam Spy too.

Owners of this game also own:

Access restricted.

This feature is only available to users with special access rights. Sorry.

If you want to proceed, you need to register or log in first and then back Steam Spy on Patreon. Look for Indie or Pro pledge.

Don't forget to use the same email as on Steam Spy!

If you've recently backed Steam Spy on Patreon, please note, that it might take around 15 minutes for your access rights to sync. In most cases you'll need to re-login on Steam Spy too.

Playtime distribution:

Access restricted.

This feature is only available to users with special access rights. Sorry.

If you want to proceed, you need to register or log in first and then back Steam Spy on Patreon. Look for Indie or Pro pledge.

Don't forget to use the same email as on Steam Spy!

If you've recently backed Steam Spy on Patreon, please note, that it might take around 15 minutes for your access rights to sync. In most cases you'll need to re-login on Steam Spy too.

Playtime (2 weeks):

Access restricted.

This feature is only available to users with special access rights. Sorry.

If you want to proceed, you need to register or log in first and then back Steam Spy on Patreon. Look for Indie or Pro pledge.

Don't forget to use the same email as on Steam Spy!

If you've recently backed Steam Spy on Patreon, please note, that it might take around 15 minutes for your access rights to sync. In most cases you'll need to re-login on Steam Spy too.

User reviews:

Login required.

Please register or log in to see this information.